"Pseudo-MPEC" for P10U2PQ

Created 2019 Nov 11 1:07:14 UT using Find_Orb

Click here for an explanation of pseudo-MPECs

 
 Astrometry: 
     P10U2PQ  C2019 11 038);_IS*fUtiV6S=,T^a%KAstrometryilIFyn(redacted;`duiYF51
     P10U2PQ  C2019 11 03Z82Xh8Gx)T;5/Svh%@5(@i[5rASm02click'#DE[f8]here?A7ZVF51
     P10U2PQ  C2019 11 03h-iform'$OGm06?Qi2;!9r9.@Qk_L\texplanation(]biL/J*^LF51

Station data:
(F51) Pan-STARRS 1, Haleakala  (N20.707235 W156.255910)  US/Hawaii.
   Observers N. Primak, A. Schultz, S. Watters, J. Thiel, T. Goggia. Measurer
   PS1 Science Consortium. 1.8-m Ritchey-Chrétien + CCD.

Orbital elements:  P10U2PQ
   Perihelion 2019 Dec 7.558826 +/- 36.6 TT = 13:24:42 (JD 2458825.058826)
Epoch 2019 Nov  3.0 TT = JDT 2458790.5   Earth MOID: 0.0184   AutoNEOCP
M 332.41267128 +/- 21               (J2000 ecliptic)
n   0.79827157 +/- 0.403            Peri.  219.97369 +/- 60
a   1.15089473 +/- 0.388            Node   216.53383 +/- 47
e   0.1457513 +/- 0.269             Incl.    8.59287 +/- 13
P   1.23/450.97d           H 27.0   G  0.15   U 12.1  SR
q 0.98315025 +/- 0.111    Q 1.31863922 +/- 34.7
From 3 observations 2019 Nov. 3 (47.3 min); mean residual 0".24
Residuals in arcseconds: 
191103 F51  .14-  .07-    191103 F51  .42+  .21+    191103 F51  .27-  .14-    

Ephemerides (geocentric):
Date (UTC) HH   RA              Dec         delta   r     elong  mag " sig PA
---- -- -- --  -------------   -----------  ------ ------ -----  --- ---- ---
2019 11 11 01  04 36 06.467   -55 33 37.51  .03088 0.9984 104.6 22.1  31d 165
2019 11 11 02  04 36 52.423   -55 38 44.54  .03097 0.9983 104.5 22.1  31d 165
2019 11 11 03  04 37 38.295   -55 43 48.57  .03107 0.9983 104.3 22.1  31d 165
2019 11 11 04  04 38 24.081   -55 48 49.63  .03116 0.9983 104.2 22.1  31d 165
2019 11 11 05  04 39 09.781   -55 53 47.72  .03126 0.9982 104.1 22.1  31d 165
2019 11 11 06  04 39 55.393   -55 58 42.90  .03135 0.9982 104.0 22.1  31d 165
2019 11 11 07  04 40 40.918   -56 03 35.17  .03145 0.9981 103.9 22.1  31d 165
2019 11 11 08  04 41 26.354   -56 08 24.57  .03155 0.9981 103.7 22.1  30d 165
2019 11 11 09  04 42 11.701   -56 13 11.12  .03164 0.9980 103.6 22.1  30d 165
2019 11 11 10  04 42 56.958   -56 17 54.85  .03174 0.9980 103.5 22.2  30d 165
2019 11 11 11  04 43 42.123   -56 22 35.79  .03183 0.9979 103.4 22.2  30d 165
2019 11 11 12  04 44 27.198   -56 27 13.95  .03193 0.9979 103.3 22.2  30d 165
2019 11 11 13  04 45 12.180   -56 31 49.36  .03203 0.9978 103.2 22.2  30d 165
2019 11 11 14  04 45 57.069   -56 36 22.06  .03212 0.9978 103.0 22.2  30d 165
2019 11 11 15  04 46 41.865   -56 40 52.06  .03222 0.9977 102.9 22.2  30d 165
2019 11 11 16  04 47 26.566   -56 45 19.38  .03232 0.9977 102.8 22.2  30d 165
2019 11 11 17  04 48 11.173   -56 49 44.06  .03241 0.9976 102.7 22.2  30d 165
2019 11 11 18  04 48 55.684   -56 54 06.12  .03251 0.9976 102.6 22.2  30d 165
2019 11 11 19  04 49 40.098   -56 58 25.57  .03261 0.9976 102.5 22.2  30d 165
2019 11 11 20  04 50 24.416   -57 02 42.45  .03270 0.9975 102.4 22.3  30d 164
2019 11 11 21  04 51 08.637   -57 06 56.78  .03280 0.9975 102.3 22.3  30d 164
2019 11 11 22  04 51 52.759   -57 11 08.58  .03290 0.9974 102.2 22.3  30d 164
2019 11 11 23  04 52 36.783   -57 15 17.88  .03300 0.9974 102.1 22.3  30d 164
2019 11 12 00  04 53 20.708   -57 19 24.69  .03310 0.9973 101.9 22.3  30d 164
2019 11 12 01  04 54 04.533   -57 23 29.05  .03319 0.9973 101.8 22.3  30d 164
2019 11 12 02  04 54 48.257   -57 27 30.97  .03329 0.9972 101.7 22.3  30d 164
2019 11 12 03  04 55 31.881   -57 31 30.48  .03339 0.9972 101.6 22.3  30d 164
2019 11 12 04  04 56 15.404   -57 35 27.59  .03349 0.9971 101.5 22.3  30d 164
2019 11 12 05  04 56 58.824   -57 39 22.34  .03359 0.9971 101.4 22.3  30d 164
2019 11 12 06  04 57 42.142   -57 43 14.74  .03369 0.9971 101.3 22.4  30d 164
2019 11 12 07  04 58 25.358   -57 47 04.82  .03379 0.9970 101.2 22.4  30d 164
2019 11 12 08  04 59 08.469   -57 50 52.60  .03388 0.9970 101.1 22.4  30d 164
2019 11 12 09  04 59 51.477   -57 54 38.09  .03398 0.9969 101.0 22.4  30d 164
2019 11 12 10  05 00 34.381   -57 58 21.32  .03408 0.9969 100.9 22.4  30d 164
2019 11 12 11  05 01 17.180   -58 02 02.32  .03418 0.9968 100.8 22.4  30d 164
2019 11 12 12  05 01 59.873   -58 05 41.10  .03428 0.9968 100.7 22.4  30d 164
2019 11 12 13  05 02 42.461   -58 09 17.69  .03438 0.9967 100.6 22.4  30d 164
2019 11 12 14  05 03 24.943   -58 12 52.09  .03448 0.9967 100.5 22.4  30d 164
2019 11 12 15  05 04 07.318   -58 16 24.35  .03458 0.9966 100.4 22.4  30d 163
2019 11 12 16  05 04 49.586   -58 19 54.47  .03468 0.9966 100.3 22.4  30d 163
2019 11 12 17  05 05 31.747   -58 23 22.47  .03478 0.9966 100.2 22.5  30d 163
2019 11 12 18  05 06 13.801   -58 26 48.38  .03488 0.9965 100.2 22.5  30d 163
2019 11 12 19  05 06 55.746   -58 30 12.22  .03498 0.9965 100.1 22.5  30d 163
2019 11 12 20  05 07 37.583   -58 33 34.00  .03508 0.9964 100.0 22.5  30d 163
2019 11 12 21  05 08 19.311   -58 36 53.75  .03518 0.9964  99.9 22.5  29d 163
2019 11 12 22  05 09 00.929   -58 40 11.48  .03528 0.9963  99.8 22.5  29d 163
2019 11 12 23  05 09 42.439   -58 43 27.22  .03538 0.9963  99.7 22.5  29d 163
2019 11 13 00  05 10 23.838   -58 46 40.98  .03548 0.9963  99.6 22.5  29d 163